Time,TemperatureF,DewpointF,PressureIn,WindDirection,WindDirectionDegrees,WindSpeedMPH,WindSpeedGustMPH,Humidity,HourlyPrecipIn,Conditions,Clouds,dailyrainin,SoftwareType,DateUTC
2013-03-25 00:05:00,41.9,32.8,29.65,WSW,249,4.0,4.0,70,0.00,,,0.00,Wunderground v.1.15,2013-03-25 04:05:00,
2013-03-25 00:10:00,41.8,33.1,29.65,WSW,251,4.0,14.0,71,0.00,,,0.00,Wunderground v.1.15,2013-03-25 04:10:00,
2013-03-25 00:15:00,41.6,32.9,29.65,WNW,282,5.0,5.0,71,0.00,,,0.00,Wunderground v.1.15,2013-03-25 04:15:00,
2013-03-25 00:20:00,41.5,33.1,29.66,West,276,6.0,7.0,72,0.00,,,0.00,Wunderground v.1.15,2013-03-25 04:20:00,
2013-03-25 00:25:00,41.3,32.6,29.66,WSW,240,5.0,8.0,71,0.00,,,0.00,Wunderground v.1.15,2013-03-25 04:25:00,
2013-03-25 00:30:00,41.0,32.0,29.66,West,275,6.0,8.0,70,0.00,,,0.00,Wunderground v.1.15,2013-03-25 04:30:00,
2013-03-25 00:35:00,40.9,31.9,29.67,WNW,286,5.0,8.0,70,0.00,,,0.00,Wunderground v.1.15,2013-03-25 04:35:00,
2013-03-25 00:40:00,40.7,31.3,29.67,SE,135,5.0,8.0,69,0.00,,,0.00,Wunderground v.1.15,2013-03-25 04:40:00,
2013-03-25 00:50:00,40.4,30.7,29.67,West,271,5.0,8.0,68,0.00,,,0.00,Wunderground v.1.15,2013-03-25 04:50:00,
2013-03-25 00:55:00,40.2,29.7,29.67,West,275,6.0,6.0,66,0.00,,,0.00,Wunderground v.1.15,2013-03-25 04:55:00,
2013-03-25 01:05:00,40.0,29.9,29.68,East,80,3.0,8.0,67,0.00,,,0.00,Wunderground v.1.15,2013-03-25 05:05:00,
2013-03-25 01:10:00,39.9,29.8,29.68,West,264,5.0,8.0,67,0.00,,,0.00,Wunderground v.1.15,2013-03-25 05:10:00,
2013-03-25 01:15:00,39.8,29.7,29.68,WSW,248,5.0,8.0,67,0.00,,,0.00,Wunderground v.1.15,2013-03-25 05:15:00,
2013-03-25 01:20:00,39.7,29.6,29.68,NW,305,3.0,8.0,67,0.00,,,0.00,Wunderground v.1.15,2013-03-25 05:20:00,
2013-03-25 01:25:00,39.6,29.2,29.68,NW,308,3.0,8.0,66,0.00,,,0.00,Wunderground v.1.15,2013-03-25 05:25:00,
2013-03-25 01:35:00,39.4,28.6,29.69,WSW,243,5.0,5.0,65,0.00,,,0.00,Wunderground v.1.15,2013-03-25 05:35:00,
2013-03-25 01:40:00,39.3,28.5,29.69,West,266,4.0,8.0,65,0.00,,,0.00,Wunderground v.1.15,2013-03-25 05:40:00,
2013-03-25 01:45:00,39.2,28.4,29.69,WSW,257,4.0,8.0,65,0.00,,,0.00,Wunderground v.1.15,2013-03-25 05:45:00,
2013-03-25 01:50:00,39.2,28.0,29.69,WSW,247,5.0,8.0,64,0.00,,,0.00,Wunderground v.1.15,2013-03-25 05:50:00,
2013-03-25 02:05:00,39.0,28.6,29.69,WNW,292,3.0,3.0,66,0.00,,,0.00,Wunderground v.1.15,2013-03-25 06:05:00,
2013-03-25 02:10:00,38.9,28.9,29.70,WNW,302,2.0,8.0,67,0.00,,,0.00,Wunderground v.1.15,2013-03-25 06:10:00,
2013-03-25 02:15:00,38.8,28.4,29.70,SE,133,2.0,8.0,66,0.00,,,0.00,Wunderground v.1.15,2013-03-25 06:15:00,
2013-03-25 02:20:00,38.7,28.7,29.70,West,280,4.0,8.0,67,0.00,,,0.00,Wunderground v.1.15,2013-03-25 06:20:00,
2013-03-25 02:25:00,38.6,28.9,29.70,WNW,291,4.0,4.0,68,0.00,,,0.00,Wunderground v.1.15,2013-03-25 06:25:00,
2013-03-25 02:30:00,38.6,28.9,29.70,West,268,3.0,8.0,68,0.00,,,0.00,Wunderground v.1.15,2013-03-25 06:30:00,
2013-03-25 02:40:00,38.4,28.8,29.70,WSW,256,4.0,8.0,68,0.00,,,0.00,Wunderground v.1.15,2013-03-25 06:40:00,
2013-03-25 02:45:00,38.4,28.8,29.70,West,281,4.0,4.0,68,0.00,,,0.00,Wunderground v.1.15,2013-03-25 06:45:00,
2013-03-25 02:50:00,38.3,28.3,29.71,WNW,295,3.0,8.0,67,0.00,,,0.00,Wunderground v.1.15,2013-03-25 06:50:00,
2013-03-25 02:55:00,38.2,28.2,29.70,WNW,292,3.0,3.0,67,0.00,,,0.00,Wunderground v.1.15,2013-03-25 06:55:00,
2013-03-25 03:05:00,38.1,27.7,29.71,West,260,4.0,4.0,66,0.00,,,0.00,Wunderground v.1.15,2013-03-25 07:05:00,
2013-03-25 03:10:00,38.0,26.9,29.71,WNW,297,3.0,6.0,64,0.00,,,0.00,Wunderground v.1.15,2013-03-25 07:10:00,
2013-03-25 03:20:00,37.9,26.8,29.71,West,273,5.0,8.0,64,0.00,,,0.00,Wunderground v.1.15,2013-03-25 07:20:00,
2013-03-25 03:25:00,37.8,26.7,29.71,WNW,300,6.0,6.0,64,0.00,,,0.00,Wunderground v.1.15,2013-03-25 07:25:00,
2013-03-25 03:30:00,37.7,27.0,29.70,WSW,257,5.0,9.0,65,0.00,,,0.00,Wunderground v.1.15,2013-03-25 07:30:00,
2013-03-25 03:35:00,37.6,27.3,29.71,ENE,63,4.0,4.0,66,0.00,,,0.00,Wunderground v.1.15,2013-03-25 07:35:00,
2013-03-25 03:40:00,37.5,27.2,29.70,WSW,248,4.0,6.0,66,0.00,,,0.00,Wunderground v.1.15,2013-03-25 07:40:00,
2013-03-25 03:50:00,37.4,27.1,29.71,NNW,332,3.0,8.0,66,0.00,,,0.00,Wunderground v.1.15,2013-03-25 07:50:00,
2013-03-25 03:55:00,37.3,27.3,29.71,NW,304,2.0,8.0,67,0.00,,,0.00,Wunderground v.1.15,2013-03-25 07:55:00,
2013-03-25 04:05:00,37.2,27.6,29.71,WNW,300,3.0,8.0,68,0.00,,,0.00,Wunderground v.1.15,2013-03-25 08:05:00,
2013-03-25 04:15:00,36.9,27.0,29.72,NNE,24,4.0,4.0,67,0.00,,,0.00,Wunderground v.1.15,2013-03-25 08:15:00,
2013-03-25 04:25:00,36.6,27.0,29.71,South,185,5.0,8.0,68,0.00,,,0.00,Wunderground v.1.15,2013-03-25 08:25:00,
2013-03-25 04:30:00,36.5,27.3,29.72,WSW,243,4.0,14.0,69,0.00,,,0.00,Wunderground v.1.15,2013-03-25 08:30:00,
2013-03-25 04:35:00,36.4,27.2,29.72,South,189,3.0,3.0,69,0.00,,,0.00,Wunderground v.1.15,2013-03-25 08:35:00,
2013-03-25 04:40:00,36.3,27.1,29.72,WNW,298,3.0,8.0,69,0.00,,,0.00,Wunderground v.1.15,2013-03-25 08:40:00,
2013-03-25 04:45:00,36.2,27.4,29.72,WNW,295,3.0,8.0,70,0.00,,,0.00,Wunderground v.1.15,2013-03-25 08:45:00,
2013-03-25 04:55:00,36.1,27.3,29.72,WSW,252,3.0,8.0,70,0.00,,,0.00,Wunderground v.1.15,2013-03-25 08:55:00,
2013-03-25 05:05:00,35.9,26.4,29.72,WNW,284,4.0,8.0,68,0.00,,,0.00,Wunderground v.1.15,2013-03-25 09:05:00,
2013-03-25 05:15:00,35.9,26.4,29.73,WNW,288,3.0,3.0,68,0.00,,,0.00,Wunderground v.1.15,2013-03-25 09:15:00,
2013-03-25 05:20:00,35.9,27.1,29.72,SW,214,3.0,6.0,70,0.00,,,0.00,Wunderground v.1.15,2013-03-25 09:20:00,
2013-03-25 05:30:00,35.7,26.9,29.72,North,6,4.0,8.0,70,0.00,,,0.00,Wunderground v.1.15,2013-03-25 09:30:00,
2013-03-25 05:35:00,35.7,26.9,29.73,NW,318,4.0,8.0,70,0.00,,,0.00,Wunderground v.1.15,2013-03-25 09:35:00,
2013-03-25 05:40:00,35.6,26.8,29.73,SE,137,4.0,8.0,70,0.00,,,0.00,Wunderground v.1.15,2013-03-25 09:40:00,
2013-03-25 05:45:00,35.6,26.8,29.73,NNW,338,3.0,3.0,70,0.00,,,0.00,Wunderground v.1.15,2013-03-25 09:45:00,
2013-03-25 05:50:00,35.6,27.1,29.74,SSW,193,3.0,6.0,71,0.00,,,0.00,Wunderground v.1.15,2013-03-25 09:50:00,
2013-03-25 05:55:00,35.5,27.7,29.73,NNW,329,4.0,4.0,73,0.00,,,0.00,Wunderground v.1.15,2013-03-25 09:55:00,
2013-03-25 06:05:00,35.4,27.9,29.73,WSW,253,2.0,8.0,74,0.00,,,0.00,Wunderground v.1.15,2013-03-25 10:05:00,
2013-03-25 06:10:00,35.3,27.8,29.73,WSW,238,3.0,8.0,74,0.00,,,0.00,Wunderground v.1.15,2013-03-25 10:10:00,
2013-03-25 06:15:00,35.2,28.4,29.73,West,279,3.0,8.0,76,0.00,,,0.00,Wunderground v.1.15,2013-03-25 10:15:00,
2013-03-25 06:25:00,35.2,28.4,29.74,NNE,19,1.0,8.0,76,0.00,,,0.00,Wunderground v.1.15,2013-03-25 10:25:00,
2013-03-25 06:30:00,35.1,28.6,29.74,WNW,301,3.0,8.0,77,0.00,,,0.00,Wunderground v.1.15,2013-03-25 10:30:00,
2013-03-25 06:35:00,35.1,28.6,29.74,West,263,3.0,8.0,77,0.00,,,0.00,Wunderground v.1.15,2013-03-25 10:35:00,
2013-03-25 06:40:00,35.0,28.2,29.74,WSW,245,3.0,8.0,76,0.00,,,0.00,Wunderground v.1.15,2013-03-25 10:40:00,
2013-03-25 06:45:00,35.0,28.2,29.74,SE,133,4.0,4.0,76,0.00,,,0.00,Wunderground v.1.15,2013-03-25 10:45:00,
2013-03-25 06:50:00,35.0,28.2,29.75,West,259,2.0,8.0,76,0.00,,,0.00,Wunderground v.1.15,2013-03-25 10:50:00,
2013-03-25 06:55:00,35.0,28.2,29.75,NW,304,2.0,8.0,76,0.00,,,0.00,Wunderground v.1.15,2013-03-25 10:55:00,
2013-03-25 07:05:00,35.0,28.5,29.75,West,274,2.0,8.0,77,0.00,,,0.00,Wunderground v.1.15,2013-03-25 11:05:00,
2013-03-25 07:10:00,35.0,28.2,29.75,WNW,283,3.0,8.0,76,0.00,,,0.00,Wunderground v.1.15,2013-03-25 11:10:00,
2013-03-25 07:20:00,35.0,27.9,29.75,WNW,285,4.0,8.0,75,0.00,,,0.00,Wunderground v.1.15,2013-03-25 11:20:00,
2013-03-25 07:25:00,35.0,27.2,29.76,WNW,302,6.0,6.0,73,0.00,,,0.00,Wunderground v.1.15,2013-03-25 11:25:00,
2013-03-25 07:30:00,35.0,27.5,29.76,West,273,4.0,8.0,74,0.00,,,0.00,Wunderground v.1.15,2013-03-25 11:30:00,
2013-03-25 07:35:00,35.0,27.9,29.76,SE,128,2.0,8.0,75,0.00,,,0.00,Wunderground v.1.15,2013-03-25 11:35:00,
2013-03-25 07:45:00,34.9,27.8,29.76,WNW,291,3.0,3.0,75,0.00,,,0.00,Wunderground v.1.15,2013-03-25 11:45:00,
2013-03-25 07:50:00,34.9,27.8,29.76,WSW,239,3.0,8.0,75,0.00,,,0.00,Wunderground v.1.15,2013-03-25 11:50:00,
2013-03-25 07:55:00,34.8,27.0,29.76,WNW,291,4.0,4.0,73,0.00,,,0.00,Wunderground v.1.15,2013-03-25 11:55:00,
2013-03-25 08:05:00,34.8,27.4,29.76,West,261,2.0,8.0,74,0.00,,,0.00,Wunderground v.1.15,2013-03-25 12:05:00,
2013-03-25 08:10:00,34.8,27.4,29.76,NW,312,4.0,8.0,74,0.00,,,0.00,Wunderground v.1.15,2013-03-25 12:10:00,
2013-03-25 08:20:00,34.8,27.7,29.76,NNW,342,4.0,8.0,75,0.00,,,0.00,Wunderground v.1.15,2013-03-25 12:20:00,
2013-03-25 08:25:00,34.8,27.4,29.77,NNE,13,3.0,3.0,74,0.00,,,0.00,Wunderground v.1.15,2013-03-25 12:25:00,
2013-03-25 08:30:00,34.9,27.5,29.77,WNW,302,3.0,4.0,74,0.00,,,0.00,Wunderground v.1.15,2013-03-25 12:30:00,
2013-03-25 08:35:00,34.9,27.1,29.78,WSW,255,4.0,8.0,73,0.00,,,0.00,Wunderground v.1.15,2013-03-25 12:35:00,
2013-03-25 08:40:00,34.9,27.5,29.78,SW,223,4.0,8.0,74,0.00,,,0.00,Wunderground v.1.15,2013-03-25 12:40:00,
2013-03-25 08:45:00,35.0,27.5,29.78,NW,321,3.0,3.0,74,0.00,,,0.00,Wunderground v.1.15,2013-03-25 12:45:00,
2013-03-25 08:55:00,35.1,27.6,29.78,SE,125,3.0,8.0,74,0.00,,,0.00,Wunderground v.1.15,2013-03-25 12:55:00,
2013-03-25 09:05:00,35.2,28.1,29.79,SE,126,3.0,8.0,75,0.00,,,0.00,Wunderground v.1.15,2013-03-25 13:05:00,
2013-03-25 09:10:00,35.4,28.3,29.79,West,277,3.0,8.0,75,0.00,,,0.00,Wunderground v.1.15,2013-03-25 13:10:00,
2013-03-25 09:15:00,35.5,28.0,29.79,NNE,19,3.0,3.0,74,0.00,,,0.00,Wunderground v.1.15,2013-03-25 13:15:00,
2013-03-25 09:20:00,35.7,28.2,29.79,SE,144,2.0,8.0,74,0.00,,,0.00,Wunderground v.1.15,2013-03-25 13:20:00,
2013-03-25 09:30:00,35.9,28.4,29.80,SE,133,3.0,8.0,74,0.00,,,0.00,Wunderground v.1.15,2013-03-25 13:30:00,
2013-03-25 09:35:00,35.9,28.4,29.80,NW,314,4.0,4.0,74,0.00,,,0.00,Wunderground v.1.15,2013-03-25 13:35:00,
2013-03-25 09:40:00,35.8,28.3,29.80,WNW,298,4.0,7.0,74,0.00,,,0.00,Wunderground v.1.15,2013-03-25 13:40:00,
2013-03-25 09:45:00,35.7,28.2,29.81,WSW,248,4.0,10.0,74,0.00,,,0.00,Wunderground v.1.15,2013-03-25 13:45:00,
2013-03-25 09:50:00,35.7,28.2,29.81,West,262,5.0,10.0,74,0.00,,,0.00,Wunderground v.1.15,2013-03-25 13:50:00,
2013-03-25 10:05:00,35.7,28.9,29.81,West,275,3.0,3.0,76,0.00,,,0.00,Wunderground v.1.15,2013-03-25 14:05:00,
2013-03-25 10:10:00,35.7,28.6,29.82,West,281,3.0,8.0,75,0.00,,,0.00,Wunderground v.1.15,2013-03-25 14:10:00,
2013-03-25 10:20:00,35.9,28.4,29.82,WSW,245,4.0,5.0,74,0.00,,,0.00,Wunderground v.1.15,2013-03-25 14:20:00,
2013-03-25 10:25:00,36.0,28.5,29.82,WSW,237,5.0,5.0,74,0.00,,,0.00,Wunderground v.1.15,2013-03-25 14:25:00,
2013-03-25 10:35:00,36.2,28.4,29.83,SSE,162,4.0,4.0,73,0.00,,,0.00,Wunderground v.1.15,2013-03-25 14:35:00,
2013-03-25 10:40:00,36.5,28.7,29.83,NNE,26,4.0,8.0,73,0.00,,,0.00,Wunderground v.1.15,2013-03-25 14:40:00,
2013-03-25 10:45:00,36.5,28.3,29.84,SW,230,4.0,11.0,72,0.00,,,0.00,Wunderground v.1.15,2013-03-25 14:45:00,
2013-03-25 10:55:00,36.3,28.8,29.84,SSW,198,4.0,4.0,74,0.00,,,0.00,Wunderground v.1.15,2013-03-25 14:55:00,
2013-03-25 11:05:00,36.6,28.8,29.84,West,272,3.0,3.0,73,0.00,,,0.00,Wunderground v.1.15,2013-03-25 15:05:00,
2013-03-25 11:10:00,36.5,28.0,29.84,SW,235,4.0,6.0,71,0.00,,,0.00,Wunderground v.1.15,2013-03-25 15:10:00,
2013-03-25 11:15:00,37.0,28.8,29.85,WSW,239,4.0,8.0,72,0.00,,,0.00,Wunderground v.1.15,2013-03-25 15:15:00,
2013-03-25 11:20:00,37.3,28.8,29.85,SE,134,3.0,8.0,71,0.00,,,0.00,Wunderground v.1.15,2013-03-25 15:20:00,
2013-03-25 11:25:00,37.2,28.3,29.85,WNW,288,3.0,8.0,70,0.00,,,0.00,Wunderground v.1.15,2013-03-25 15:25:00,
2013-03-25 11:35:00,36.9,28.4,29.85,WSW,237,5.0,8.0,71,0.00,,,0.00,Wunderground v.1.15,2013-03-25 15:35:00,
2013-03-25 11:45:00,36.8,27.9,29.86,West,272,5.0,5.0,70,0.00,,,0.00,Wunderground v.1.15,2013-03-25 15:45:00,
2013-03-25 11:50:00,36.9,27.7,29.86,West,272,4.0,8.0,69,0.00,,,0.00,Wunderground v.1.15,2013-03-25 15:50:00,
2013-03-25 11:55:00,36.9,27.7,29.86,West,266,5.0,5.0,69,0.00,,,0.00,Wunderground v.1.15,2013-03-25 15:55:00,
2013-03-25 12:05:00,37.1,27.2,29.87,WSW,258,5.0,8.0,67,0.00,,,0.00,Wunderground v.1.15,2013-03-25 16:05:00,
2013-03-25 12:10:00,37.1,27.5,29.87,WSW,247,5.0,8.0,68,0.00,,,0.00,Wunderground v.1.15,2013-03-25 16:10:00,
2013-03-25 12:15:00,37.1,27.9,29.87,WNW,282,4.0,8.0,69,0.00,,,0.00,Wunderground v.1.15,2013-03-25 16:15:00,
2013-03-25 12:20:00,37.2,27.6,29.87,WNW,298,4.0,8.0,68,0.00,,,0.00,Wunderground v.1.15,2013-03-25 16:20:00,
2013-03-25 12:25:00,37.5,28.6,29.87,West,275,4.0,4.0,70,0.00,,,0.00,Wunderground v.1.15,2013-03-25 16:25:00,
2013-03-25 12:35:00,37.6,27.3,29.87,West,272,5.0,5.0,66,0.00,,,0.00,Wunderground v.1.15,2013-03-25 16:35:00,
2013-03-25 12:40:00,37.9,27.9,29.87,West,266,5.0,8.0,67,0.00,,,0.00,Wunderground v.1.15,2013-03-25 16:40:00,
2013-03-25 12:45:00,38.0,27.3,29.87,WNW,302,5.0,5.0,65,0.00,,,0.00,Wunderground v.1.15,2013-03-25 16:45:00,
2013-03-25 12:50:00,37.7,27.0,29.88,WNW,292,6.0,6.0,65,0.00,,,0.00,Wunderground v.1.15,2013-03-25 16:50:00,
2013-03-25 12:55:00,37.7,26.6,29.88,WNW,292,7.0,8.0,64,0.00,,,0.00,Wunderground v.1.15,2013-03-25 16:55:00,
2013-03-25 13:05:00,38.3,26.8,29.88,ESE,106,4.0,10.0,63,0.00,,,0.00,Wunderground v.1.15,2013-03-25 17:05:00,
2013-03-25 13:10:00,38.1,26.6,29.88,WNW,283,5.0,10.0,63,0.00,,,0.00,Wunderground v.1.15,2013-03-25 17:10:00,
2013-03-25 13:20:00,39.4,27.8,29.88,WNW,290,4.0,8.0,63,0.00,,,0.00,Wunderground v.1.15,2013-03-25 17:20:00,
2013-03-25 13:25:00,39.5,28.3,29.88,NW,311,3.0,3.0,64,0.00,,,0.00,Wunderground v.1.15,2013-03-25 17:25:00,
2013-03-25 13:30:00,39.4,27.5,29.89,SW,221,4.0,4.0,62,0.00,,,0.00,Wunderground v.1.15,2013-03-25 17:30:00,
2013-03-25 13:35:00,38.7,26.8,29.88,WNW,287,5.0,5.0,62,0.00,,,0.00,Wunderground v.1.15,2013-03-25 17:35:00,
2013-03-25 13:40:00,38.2,27.1,29.88,West,269,5.0,8.0,64,0.00,,,0.00,Wunderground v.1.15,2013-03-25 17:40:00,
2013-03-25 13:45:00,37.8,27.5,29.89,WNW,294,4.0,8.0,66,0.00,,,0.00,Wunderground v.1.15,2013-03-25 17:45:00,
2013-03-25 13:50:00,38.1,27.0,29.89,NE,51,5.0,8.0,64,0.00,,,0.00,Wunderground v.1.15,2013-03-25 17:50:00,
2013-03-25 14:05:00,38.1,27.4,29.89,WNW,302,3.0,3.0,65,0.00,,,0.00,Wunderground v.1.15,2013-03-25 18:05:00,
2013-03-25 14:10:00,38.0,28.0,29.89,South,181,2.0,8.0,67,0.00,,,0.00,Wunderground v.1.15,2013-03-25 18:10:00,
2013-03-25 14:15:00,37.6,27.3,29.89,SSE,152,3.0,8.0,66,0.00,,,0.00,Wunderground v.1.15,2013-03-25 18:15:00,
2013-03-25 14:20:00,37.4,26.7,29.89,WNW,289,5.0,8.0,65,0.00,,,0.00,Wunderground v.1.15,2013-03-25 18:20:00,
2013-03-25 14:25:00,37.6,26.9,29.89,SW,225,4.0,8.0,65,0.00,,,0.00,Wunderground v.1.15,2013-03-25 18:25:00,
2013-03-25 14:35:00,37.6,26.9,29.89,SE,127,4.0,4.0,65,0.00,,,0.00,Wunderground v.1.15,2013-03-25 18:35:00,
2013-03-25 14:45:00,37.4,26.7,29.90,NW,306,5.0,8.0,65,0.00,,,0.00,Wunderground v.1.15,2013-03-25 18:45:00,
2013-03-25 14:50:00,37.2,27.2,29.90,West,265,5.0,9.0,67,0.00,,,0.00,Wunderground v.1.15,2013-03-25 18:50:00,
2013-03-25 14:55:00,37.1,27.2,29.90,West,277,5.0,5.0,67,0.00,,,0.00,Wunderground v.1.15,2013-03-25 18:55:00,
2013-03-25 15:05:00,37.4,27.4,29.90,WNW,283,3.0,12.0,67,0.00,,,0.00,Wunderground v.1.15,2013-03-25 19:05:00,
2013-03-25 15:10:00,37.4,27.4,29.91,ESE,123,4.0,12.0,67,0.00,,,0.00,Wunderground v.1.15,2013-03-25 19:10:00,
2013-03-25 15:20:00,37.1,27.2,29.91,West,276,5.0,8.0,67,0.00,,,0.00,Wunderground v.1.15,2013-03-25 19:20:00,
2013-03-25 15:25:00,37.0,27.1,29.91,WSW,255,5.0,5.0,67,0.00,,,0.00,Wunderground v.1.15,2013-03-25 19:25:00,
2013-03-25 15:30:00,36.9,27.0,29.91,West,266,4.0,8.0,67,0.00,,,0.00,Wunderground v.1.15,2013-03-25 19:30:00,
2013-03-25 15:35:00,36.9,27.0,29.91,WNW,291,4.0,8.0,67,0.00,,,0.00,Wunderground v.1.15,2013-03-25 19:35:00,
2013-03-25 15:45:00,37.1,27.2,29.92,West,266,4.0,4.0,67,0.00,,,0.00,Wunderground v.1.15,2013-03-25 19:45:00,
2013-03-25 15:50:00,37.1,27.2,29.91,WNW,289,4.0,8.0,67,0.00,,,0.00,Wunderground v.1.15,2013-03-25 19:50:00,
2013-03-25 15:55:00,37.1,27.2,29.92,WNW,285,4.0,8.0,67,0.00,,,0.00,Wunderground v.1.15,2013-03-25 19:55:00,
2013-03-25 16:05:00,37.0,27.1,29.92,WNW,300,5.0,8.0,67,0.00,,,0.00,Wunderground v.1.15,2013-03-25 20:05:00,
2013-03-25 16:10:00,36.9,27.3,29.92,NNW,331,5.0,8.0,68,0.00,,,0.00,Wunderground v.1.15,2013-03-25 20:10:00,
2013-03-25 16:20:00,37.5,28.2,29.92,West,279,3.0,8.0,69,0.00,,,0.00,Wunderground v.1.15,2013-03-25 20:20:00,
2013-03-25 16:25:00,37.9,27.9,29.92,West,272,3.0,8.0,67,0.00,,,0.00,Wunderground v.1.15,2013-03-25 20:25:00,
2013-03-25 16:30:00,37.8,27.8,29.92,West,273,3.0,8.0,67,0.00,,,0.00,Wunderground v.1.15,2013-03-25 20:30:00,
2013-03-25 16:35:00,37.6,27.3,29.93,WNW,300,5.0,5.0,66,0.00,,,0.00,Wunderground v.1.15,2013-03-25 20:35:00,
2013-03-25 16:40:00,37.3,28.1,29.93,West,264,5.0,8.0,69,0.00,,,0.00,Wunderground v.1.15,2013-03-25 20:40:00,
2013-03-25 16:50:00,36.8,27.9,29.93,West,264,4.0,8.0,70,0.00,,,0.00,Wunderground v.1.15,2013-03-25 20:50:00,
2013-03-25 17:05:00,37.1,27.5,29.94,WNW,291,4.0,8.0,68,0.00,,,0.00,Wunderground v.1.15,2013-03-25 21:05:00,
2013-03-25 17:10:00,37.2,27.2,29.94,West,275,4.0,8.0,67,0.00,,,0.00,Wunderground v.1.15,2013-03-25 21:10:00,
2013-03-25 17:15:00,37.3,27.7,29.94,West,266,3.0,3.0,68,0.00,,,0.00,Wunderground v.1.15,2013-03-25 21:15:00,
2013-03-25 17:20:00,37.3,27.0,29.94,West,273,4.0,5.0,66,0.00,,,0.00,Wunderground v.1.15,2013-03-25 21:20:00,
2013-03-25 17:30:00,37.1,27.2,29.95,West,265,5.0,8.0,67,0.00,,,0.00,Wunderground v.1.15,2013-03-25 21:30:00,
2013-03-25 17:35:00,37.1,27.5,29.96,WNW,291,4.0,8.0,68,0.00,,,0.00,Wunderground v.1.15,2013-03-25 21:35:00,
2013-03-25 17:45:00,37.0,27.4,29.96,WNW,285,5.0,8.0,68,0.00,,,0.00,Wunderground v.1.15,2013-03-25 21:45:00,
2013-03-25 17:50:00,36.8,27.2,29.96,West,275,5.0,8.0,68,0.00,,,0.00,Wunderground v.1.15,2013-03-25 21:50:00,
2013-03-25 17:55:00,36.8,27.6,29.97,West,277,3.0,3.0,69,0.00,,,0.00,Wunderground v.1.15,2013-03-25 21:55:00,
2013-03-25 18:05:00,36.7,28.5,29.97,WSW,250,2.0,8.0,72,0.00,,,0.00,Wunderground v.1.15,2013-03-25 22:05:00,
2013-03-25 18:10:00,36.5,28.0,29.97,WNW,300,3.0,8.0,71,0.00,,,0.00,Wunderground v.1.15,2013-03-25 22:10:00,
2013-03-25 18:15:00,36.4,28.6,29.97,West,265,3.0,3.0,73,0.00,,,0.00,Wunderground v.1.15,2013-03-25 22:15:00,
2013-03-25 18:20:00,36.2,28.0,29.98,West,267,3.0,8.0,72,0.00,,,0.00,Wunderground v.1.15,2013-03-25 22:20:00,
2013-03-25 18:25:00,36.1,27.9,29.98,West,262,2.0,8.0,72,0.00,,,0.00,Wunderground v.1.15,2013-03-25 22:25:00,
2013-03-25 18:35:00,36.1,27.6,29.98,NW,320,3.0,3.0,71,0.00,,,0.00,Wunderground v.1.15,2013-03-25 22:35:00,
2013-03-25 18:45:00,36.0,27.5,29.98,SW,219,3.0,8.0,71,0.00,,,0.00,Wunderground v.1.15,2013-03-25 22:45:00,
2013-03-25 18:50:00,36.0,27.8,29.98,WSW,257,3.0,8.0,72,0.00,,,0.00,Wunderground v.1.15,2013-03-25 22:50:00,
2013-03-25 18:55:00,35.9,28.1,29.99,WSW,252,3.0,3.0,73,0.00,,,0.00,Wunderground v.1.15,2013-03-25 22:55:00,
2013-03-25 19:05:00,35.9,28.1,29.99,NW,313,3.0,8.0,73,0.00,,,0.00,Wunderground v.1.15,2013-03-25 23:05:00,
2013-03-25 19:10:00,35.7,27.9,29.99,WSW,246,4.0,8.0,73,0.00,,,0.00,Wunderground v.1.15,2013-03-25 23:10:00,
2013-03-25 19:15:00,35.6,27.5,30.00,NW,316,5.0,8.0,72,0.00,,,0.00,Wunderground v.1.15,2013-03-25 23:15:00,
2013-03-25 19:20:00,35.6,27.8,30.00,West,270,3.0,8.0,73,0.00,,,0.00,Wunderground v.1.15,2013-03-25 23:20:00,
2013-03-25 19:30:00,35.5,28.0,30.00,West,262,4.0,8.0,74,0.00,,,0.00,Wunderground v.1.15,2013-03-25 23:30:00,
2013-03-25 19:35:00,35.4,27.6,30.01,West,278,3.0,8.0,73,0.00,,,0.00,Wunderground v.1.15,2013-03-25 23:35:00,
2013-03-25 19:45:00,35.3,27.8,30.01,West,261,2.0,2.0,74,0.00,,,0.00,Wunderground v.1.15,2013-03-25 23:45:00,
2013-03-25 19:50:00,35.2,27.4,30.01,West,260,2.0,8.0,73,0.00,,,0.00,Wunderground v.1.15,2013-03-25 23:50:00,
2013-03-25 19:55:00,35.2,27.7,30.02,West,276,2.0,8.0,74,0.00,,,0.00,Wunderground v.1.15,2013-03-25 23:55:00,
2013-03-25 20:05:00,35.0,28.5,30.01,North,360,2.0,8.0,77,0.00,,,0.00,Wunderground v.1.15,2013-03-26 00:05:00,
2013-03-25 20:10:00,34.9,27.5,30.02,West,273,3.0,8.0,74,0.00,,,0.00,Wunderground v.1.15,2013-03-26 00:10:00,
2013-03-25 20:15:00,34.8,27.7,30.02,South,180,2.0,8.0,75,0.00,,,0.00,Wunderground v.1.15,2013-03-26 00:15:00,
2013-03-25 20:20:00,34.7,27.3,30.02,West,268,1.0,8.0,74,0.00,,,0.00,Wunderground v.1.15,2013-03-26 00:20:00,
2013-03-25 20:30:00,34.6,27.5,30.02,SSE,148,1.0,8.0,75,0.00,,,0.00,Wunderground v.1.15,2013-03-26 00:30:00,
2013-03-25 20:35:00,34.6,27.2,30.02,SSW,213,2.0,2.0,74,0.00,,,0.00,Wunderground v.1.15,2013-03-26 00:35:00,
2013-03-25 20:40:00,34.6,27.2,30.02,WSW,251,2.0,8.0,74,0.00,,,0.00,Wunderground v.1.15,2013-03-26 00:40:00,
2013-03-25 20:45:00,34.6,26.8,30.03,WSW,237,1.0,1.0,73,0.00,,,0.00,Wunderground v.1.15,2013-03-26 00:45:00,
2013-03-25 20:55:00,34.5,26.7,30.03,SW,223,1.0,1.0,73,0.00,,,0.00,Wunderground v.1.15,2013-03-26 00:55:00,
2013-03-25 21:05:00,34.4,27.0,30.03,WNW,289,1.0,8.0,74,0.00,,,0.00,Wunderground v.1.15,2013-03-26 01:05:00,
2013-03-25 21:10:00,34.4,26.6,30.04,SW,215,2.0,8.0,73,0.00,,,0.00,Wunderground v.1.15,2013-03-26 01:10:00,
2013-03-25 21:20:00,34.4,26.3,30.04,WSW,241,2.0,8.0,72,0.00,,,0.00,Wunderground v.1.15,2013-03-26 01:20:00,
2013-03-25 21:25:00,34.4,26.3,30.04,WSW,256,2.0,2.0,72,0.00,,,0.00,Wunderground v.1.15,2013-03-26 01:25:00,
2013-03-25 21:30:00,34.3,26.5,30.04,North,352,3.0,3.0,73,0.00,,,0.00,Wunderground v.1.15,2013-03-26 01:30:00,
2013-03-25 21:35:00,34.3,26.9,30.04,West,275,2.0,8.0,74,0.00,,,0.00,Wunderground v.1.15,2013-03-26 01:35:00,
2013-03-25 21:40:00,34.3,26.5,30.04,NE,56,2.0,8.0,73,0.00,,,0.00,Wunderground v.1.15,2013-03-26 01:40:00,
2013-03-25 21:45:00,34.3,26.5,30.04,SSE,156,2.0,2.0,73,0.00,,,0.00,Wunderground v.1.15,2013-03-26 01:45:00,
2013-03-25 21:50:00,34.3,26.5,30.04,South,182,3.0,6.0,73,0.00,,,0.00,Wunderground v.1.15,2013-03-26 01:50:00,
2013-03-25 22:05:00,34.3,26.9,30.05,NW,315,2.0,2.0,74,0.00,,,0.00,Wunderground v.1.15,2013-03-26 02:05:00,
2013-03-25 22:10:00,34.4,27.0,30.05,West,268,2.0,8.0,74,0.00,,,0.00,Wunderground v.1.15,2013-03-26 02:10:00,
2013-03-25 22:20:00,34.4,27.0,30.05,WSW,257,3.0,8.0,74,0.00,,,0.00,Wunderground v.1.15,2013-03-26 02:20:00,
2013-03-25 22:25:00,34.4,27.3,30.06,WNW,294,3.0,3.0,75,0.00,,,0.00,Wunderground v.1.15,2013-03-26 02:25:00,
2013-03-25 22:35:00,34.4,27.6,30.06,West,272,1.0,8.0,76,0.00,,,0.00,Wunderground v.1.15,2013-03-26 02:35:00,
2013-03-25 22:40:00,34.3,26.9,30.06,WNW,287,2.0,8.0,74,0.00,,,0.00,Wunderground v.1.15,2013-03-26 02:40:00,
2013-03-25 22:45:00,34.3,27.2,30.06,WSW,250,2.0,2.0,75,0.00,,,0.00,Wunderground v.1.15,2013-03-26 02:45:00,
2013-03-25 22:50:00,34.3,27.2,30.06,West,272,2.0,8.0,75,0.00,,,0.00,Wunderground v.1.15,2013-03-26 02:50:00,